Location: *
(32.8667°N, 13.1833°E)
Time: 19:46:11
(UTC+00:00)

Terra - Pass Details

Date: 18 July 2019
Orbit: 701 x 703 km, 98.2° (Epoch: 25 August)

Event Time Altitude Azimuth Distance (km) Brightness Sun altitude
Exits shadow 19:48:48 10° 71° (ENE) 2,187 4.1 -17.3°
Maximum altitude 19:49:21 10° 64° (ENE) 2,174 4.1 -17.4°
Drops below altitude 10° 19:49:26 10° 63° (ENE) 2,174 4.1 -17.4°
Sets 19:54:31 0° 16° (NNE) 3,096 5.5 -18.2°
